TimeCEST,TemperatureF,Dew PointF,Humidity,Sea Level PressureIn,VisibilityMPH,Wind Direction,Wind SpeedMPH,Gust SpeedMPH,PrecipitationIn,Events,Conditions,WindDirDegrees,DateUTC
12:20 AM,59.0,53.6,82,29.59,6.2,South,13.8,-,N/A,Rain,Light Rain,170,2013-04-01 22:20:00
12:50 AM,57.2,53.6,88,29.59,3.1,South,11.5,-,N/A,Rain,Rain,170,2013-04-01 22:50:00
1:20 AM,57.2,53.6,88,29.56,4.3,South,10.4,-,N/A,Rain,Light Rain,180,2013-04-01 23:20:00
1:50 AM,57.2,55.4,94,29.56,3.1,South,11.5,-,N/A,Rain,Rain,180,2013-04-01 23:50:00
2:20 AM,57.2,55.4,94,29.56,3.1,SSW,9.2,-,N/A,Rain,Light Rain,200,2013-04-02 00:20:00
2:50 AM,59.0,55.4,88,29.56,3.1,SSW,10.4,-,N/A,,Mostly Cloudy,210,2013-04-02 00:50:00
3:20 AM,59.0,55.4,88,29.56,3.1,SSW,13.8,25.3,N/A,,Mostly Cloudy,200,2013-04-02 01:20:00
4:20 AM,57.2,55.4,94,29.53,3.1,SSW,12.7,25.3,N/A,,Mostly Cloudy,210,2013-04-02 02:20:00
4:50 AM,59.0,53.6,82,29.53,3.1,SW,12.7,-,N/A,,Mostly Cloudy,220,2013-04-02 02:50:00
5:20 AM,59.0,53.6,82,29.53,4.3,SW,13.8,-,N/A,,Mostly Cloudy,220,2013-04-02 03:20:00
5:50 AM,57.2,51.8,82,29.53,4.3,SW,15.0,27.6,N/A,,Mostly Cloudy,220,2013-04-02 03:50:00
6:20 AM,57.2,53.6,88,29.53,5.0,SW,12.7,-,N/A,,Mostly Cloudy,220,2013-04-02 04:20:00
6:50 AM,57.2,53.6,88,29.53,4.3,SSW,8.1,-,N/A,,Mostly Cloudy,210,2013-04-02 04:50:00
7:20 AM,57.2,53.6,88,29.53,3.7,SSW,10.4,-,N/A,,Mostly Cloudy,210,2013-04-02 05:20:00
7:50 AM,57.2,53.6,88,29.53,3.7,South,10.4,-,N/A,,Mostly Cloudy,180,2013-04-02 05:50:00
8:20 AM,57.2,53.6,88,29.53,3.7,SSW,11.5,-,N/A,,Mostly Cloudy,200,2013-04-02 06:20:00
8:50 AM,59.0,53.6,82,29.50,3.7,SSW,10.4,-,N/A,,Mostly Cloudy,200,2013-04-02 06:50:00
9:20 AM,59.0,53.6,82,29.50,5.0,South,12.7,-,N/A,,Mostly Cloudy,190,2013-04-02 07:20:00
9:50 AM,59.0,53.6,82,29.50,5.0,South,10.4,-,N/A,,Mostly Cloudy,190,2013-04-02 07:50:00
10:20 AM,60.8,55.4,82,29.50,5.0,South,11.5,-,N/A,,Mostly Cloudy,180,2013-04-02 08:20:00
10:50 AM,59.0,53.6,82,29.50,-9999.0,North,-9999.0,-,N/A,,Mostly Cloudy,0,2013-04-02 08:50:00
11:20 AM,59.0,53.6,82,29.50,5.0,South,15.0,-,N/A,,Mostly Cloudy,180,2013-04-02 09:20:00
11:50 AM,60.8,53.6,77,29.50,5.0,South,13.8,-,N/A,,Mostly Cloudy,190,2013-04-02 09:50:00
12:20 PM,59.0,53.6,82,29.50,5.0,SSW,15.0,-,N/A,Rain,Light Rain,200,2013-04-02 10:20:00
12:50 PM,59.0,53.6,82,29.47,5.0,SSW,15.0,-,N/A,,Mostly Cloudy,210,2013-04-02 10:50:00
1:20 PM,60.8,53.6,77,29.47,5.0,SSW,18.4,31.1,N/A,,Mostly Cloudy,210,2013-04-02 11:20:00
1:50 PM,57.2,51.8,82,29.47,5.0,SW,15.0,-,N/A,Rain,Rain,220,2013-04-02 11:50:00
2:20 PM,59.0,50.0,72,29.47,5.0,SSW,13.8,-,N/A,,Scattered Clouds,200,2013-04-02 12:20:00
2:50 PM,59.0,50.0,72,29.47,6.2,SSW,13.8,-,N/A,,Scattered Clouds,200,2013-04-02 12:50:00
3:20 PM,55.4,50.0,82,29.47,6.2,SSW,13.8,28.8,N/A,Rain,Light Rain,200,2013-04-02 13:20:00
3:50 PM,55.4,50.0,82,29.44,6.2,South,10.4,-,N/A,,Mostly Cloudy,190,2013-04-02 13:50:00
4:20 PM,53.6,50.0,88,29.44,5.0,SSW,12.7,-,N/A,Rain,Light Rain,210,2013-04-02 14:20:00
4:50 PM,51.8,48.2,88,29.44,3.1,South,12.7,-,N/A,Rain,Light Rain,190,2013-04-02 14:50:00
5:20 PM,51.8,50.0,94,29.42,3.1,SSE,9.2,21.9,N/A,Rain,Light Rain,150,2013-04-02 15:20:00
5:50 PM,53.6,50.0,88,29.42,4.3,South,11.5,-,N/A,Rain,Light Rain,180,2013-04-02 15:50:00
6:20 PM,53.6,50.0,88,29.42,4.3,South,13.8,-,N/A,Rain,Light Rain,180,2013-04-02 16:20:00
6:50 PM,55.4,51.8,88,29.39,4.3,South,9.2,-,N/A,Rain,Light Rain,190,2013-04-02 16:50:00
7:20 PM,53.6,50.0,88,29.42,3.7,WSW,18.4,-,N/A,Rain,Light Rain,250,2013-04-02 17:20:00
7:50 PM,51.8,50.0,94,29.44,3.1,WSW,16.1,-,N/A,Rain,Light Rain,240,2013-04-02 17:50:00
8:20 PM,53.6,50.0,88,29.47,5.0,WSW,12.7,-,N/A,Rain,Light Rain,240,2013-04-02 18:20:00
8:50 PM,53.6,48.2,82,29.50,6.2,WSW,15.0,-,N/A,,Scattered Clouds,250,2013-04-02 18:50:00
9:20 PM,51.8,48.2,88,29.50,5.0,WSW,11.5,-,N/A,,Scattered Clouds,250,2013-04-02 19:20:00
9:50 PM,51.8,48.2,88,29.50,5.0,West,10.4,-,N/A,,Light Drizzle,260,2013-04-02 19:50:00
10:20 PM,51.8,48.2,88,29.50,5.0,West,12.7,-,N/A,,Light Drizzle,270,2013-04-02 20:20:00
10:50 PM,51.8,48.2,88,29.53,6.2,West,10.4,-,N/A,,Scattered Clouds,280,2013-04-02 20:50:00
11:20 PM,51.8,48.2,88,29.53,6.2,West,8.1,-,N/A,,Scattered Clouds,280,2013-04-02 21:20:00
11:50 PM,51.8,48.2,88,29.53,6.2,West,6.9,-,N/A,,Scattered Clouds,280,2013-04-02 21:50:00